TimeAEST,TemperatureF,Dew PointF,Humidity,Sea Level PressureIn,VisibilityMPH,Wind Direction,Wind SpeedMPH,Gust SpeedMPH,PrecipitationIn,Events,Conditions,WindDirDegrees,DateUTC
12:00 AM,69,64,81,30.09,,South,11.5,,,,Overcast,190,2013-08-26 14:00:00
12:00 AM,68.0,64.4,88,30.09,6.2,South,11.5,-,N/A,,Mostly Cloudy,190,2013-08-26 14:00:00
12:30 AM,69.8,64.4,83,30.06,6.2,South,15.0,-,N/A,,Mostly Cloudy,190,2013-08-26 14:30:00
1:00 AM,71,64,71,30.08,,SSW,10.4,,,,,200,2013-08-26 15:00:00
1:00 AM,69.8,64.4,83,30.06,6.2,SSW,10.4,-,N/A,,Mostly Cloudy,200,2013-08-26 15:00:00
1:30 AM,69.8,62.6,78,30.06,6.2,South,10.4,-,N/A,,Mostly Cloudy,190,2013-08-26 15:30:00
2:00 AM,69.8,62.6,78,30.06,6.2,South,10.4,-,N/A,,Mostly Cloudy,180,2013-08-26 16:00:00
2:30 AM,69.8,62.6,78,30.04,6.2,South,11.5,-,N/A,,Mostly Cloudy,190,2013-08-26 16:30:00
3:00 AM,70,63,72,30.05,,South,12.7,,,,Overcast,180,2013-08-26 17:00:00
3:00 AM,69.8,62.6,78,30.04,6.2,South,12.7,-,N/A,,Mostly Cloudy,180,2013-08-26 17:00:00
3:30 AM,69.8,62.6,78,30.04,6.2,South,11.5,-,N/A,Rain,Light Rain Showers,180,2013-08-26 17:30:00
4:00 AM,69,65,82,30.05,,SE,9.2,,,,,130,2013-08-26 18:00:00
4:00 AM,68.0,64.4,88,30.04,6.2,SE,9.2,-,N/A,Rain,Light Rain Showers,130,2013-08-26 18:00:00
4:30 AM,69.8,62.6,78,30.04,6.2,South,10.4,-,N/A,,Mostly Cloudy,180,2013-08-26 18:30:00
5:00 AM,69.8,62.6,78,30.04,6.2,South,11.5,-,N/A,,Mostly Cloudy,180,2013-08-26 19:00:00
5:30 AM,71.6,60.8,69,30.04,6.2,South,10.4,-,N/A,Rain,Light Rain Showers,180,2013-08-26 19:30:00
6:00 AM,68.0,64.4,88,30.06,6.2,SSE,6.9,-,N/A,,Mostly Cloudy,150,2013-08-26 20:00:00
6:30 AM,68.0,64.4,88,30.06,6.2,SSE,6.9,-,N/A,,Scattered Clouds,150,2013-08-26 20:30:00
7:00 AM,67,65,90,30.10,,SE,9.2,,,,,140,2013-08-26 21:00:00
7:00 AM,68.0,64.4,88,30.09,6.2,SE,9.2,-,N/A,Rain,Light Rain Showers,140,2013-08-26 21:00:00
7:30 AM,68.0,64.4,88,30.09,6.2,SSE,8.1,-,N/A,,Mostly Cloudy,160,2013-08-26 21:30:00
8:00 AM,69.8,62.6,78,30.09,6.2,South,9.2,-,N/A,,Mostly Cloudy,170,2013-08-26 22:00:00
9:00 AM,72,63,66,30.12,19,South,9.2,,,,Partly Cloudy,180,2013-08-26 23:00:00
9:00 AM,73.4,62.6,69,30.09,6.2,South,9.2,-,N/A,,Scattered Clouds,180,2013-08-26 23:00:00
9:30 AM,75.2,64.4,69,30.09,6.2,SSE,10.4,-,N/A,,Scattered Clouds,160,2013-08-26 23:30:00
10:00 AM,78,63,51,30.13,,SSE,12.7,,,,,160,2013-08-27 00:00:00
10:00 AM,77.0,62.6,61,30.12,6.2,SSE,12.7,-,N/A,,Partly Cloudy,160,2013-08-27 00:00:00
10:30 AM,78.8,57.2,47,30.12,6.2,SE,18.4,-,N/A,,Partly Cloudy,130,2013-08-27 00:30:00
11:00 AM,78.8,59.0,51,30.09,6.2,SE,19.6,-,N/A,,Partly Cloudy,140,2013-08-27 01:00:00
11:30 AM,80.6,55.4,42,30.09,6.2,SSE,19.6,-,N/A,,Partly Cloudy,150,2013-08-27 01:30:00
12:00 PM,82.4,57.2,42,30.06,6.2,SE,18.4,-,N/A,,Partly Cloudy,130,2013-08-27 02:00:00
12:30 PM,82.4,57.2,42,30.06,6.2,SE,17.3,-,N/A,,Partly Cloudy,130,2013-08-27 02:30:00
1:00 PM,81,56,31,30.07,,SE,18.4,,,,,130,2013-08-27 03:00:00
1:00 PM,80.6,55.4,42,30.06,6.2,SE,18.4,-,N/A,,Partly Cloudy,130,2013-08-27 03:00:00
1:30 PM,80.6,59.0,48,30.06,6.2,SE,17.3,-,N/A,,Partly Cloudy,140,2013-08-27 03:30:00
2:00 PM,82.4,60.8,48,30.04,6.2,SE,17.3,-,N/A,,Partly Cloudy,130,2013-08-27 04:00:00
2:30 PM,80.6,59.0,48,30.04,6.2,ESE,18.4,-,N/A,,Partly Cloudy,120,2013-08-27 04:30:00
3:00 PM,81,60,38,30.04,19,SE,18.4,,,,Partly Cloudy,130,2013-08-27 05:00:00
3:00 PM,80.6,59.0,48,30.04,6.2,SE,18.4,-,N/A,,Partly Cloudy,130,2013-08-27 05:00:00
3:30 PM,80.6,60.8,51,30.04,6.2,SE,15.0,-,N/A,,Partly Cloudy,140,2013-08-27 05:30:00
4:00 PM,78.8,57.2,47,30.04,6.2,SSE,15.0,-,N/A,,Partly Cloudy,150,2013-08-27 06:00:00
4:30 PM,78.8,59.0,51,30.04,6.2,SE,16.1,-,N/A,,Partly Cloudy,140,2013-08-27 06:30:00
5:00 PM,77.0,60.8,57,30.04,6.2,SE,15.0,-,N/A,,Partly Cloudy,140,2013-08-27 07:00:00
5:30 PM,75.2,62.6,65,30.04,6.2,SE,13.8,-,N/A,,Partly Cloudy,140,2013-08-27 07:30:00
6:00 PM,74,61,56,30.06,,SSE,18.4,,,,,150,2013-08-27 08:00:00
6:00 PM,73.4,60.8,65,30.06,6.2,SSE,18.4,-,N/A,,Partly Cloudy,150,2013-08-27 08:00:00
6:30 PM,73.4,60.8,65,30.06,6.2,SSE,15.0,-,N/A,,Partly Cloudy,150,2013-08-27 08:30:00
7:00 PM,72,62,62,30.09,,SSE,6.9,,,,,160,2013-08-27 09:00:00
7:00 PM,71.6,60.8,69,30.06,6.2,SSE,6.9,-,N/A,,Partly Cloudy,160,2013-08-27 09:00:00
7:30 PM,71.6,62.6,73,30.09,6.2,SSE,10.4,-,N/A,,Partly Cloudy,160,2013-08-27 09:30:00
8:00 PM,71.6,62.6,73,30.09,6.2,SSE,9.2,-,N/A,,Partly Cloudy,160,2013-08-27 10:00:00
8:30 PM,69.8,62.6,78,30.09,6.2,SSE,8.1,-,N/A,,Partly Cloudy,160,2013-08-27 10:30:00
9:00 PM,70,63,73,30.12,,SSE,10.4,,,,,160,2013-08-27 11:00:00
9:00 PM,69.8,62.6,78,30.09,6.2,SSE,10.4,-,N/A,,Partly Cloudy,160,2013-08-27 11:00:00
9:30 PM,69.8,62.6,78,30.09,6.2,South,8.1,-,N/A,,Partly Cloudy,170,2013-08-27 11:30:00
10:00 PM,71,62,65,30.12,,South,9.2,,,,,180,2013-08-27 12:00:00
10:00 PM,69.8,62.6,78,30.09,6.2,South,9.2,-,N/A,,Partly Cloudy,180,2013-08-27 12:00:00
10:30 PM,71.6,60.8,69,30.09,6.2,South,10.4,-,N/A,,Partly Cloudy,190,2013-08-27 12:30:00
11:00 PM,71.6,62.6,73,30.09,6.2,South,9.2,-,N/A,,Partly Cloudy,180,2013-08-27 13:00:00
11:30 PM,69.8,62.6,78,30.09,6.2,South,8.1,-,N/A,,Partly Cloudy,180,2013-08-27 13:30:00